EW8518 Weather Reports


Display with metric or nautical units.
time (UTC)temp
F
wind
direction
speed
MPH
gust
MPH
rain 1hr
in
rain 24hr
in
rain mn
in
humidity
%
barometer
mb
20260507114509 69 130 6.0 14.0 0.00 0.00 0.00 70 1011.2
20260507113052 68 126 8.0 15.0 0.00 0.00 0.00 66 1011.3
20260507111551 69 121 7.0 13.0 0.00 0.00 0.00 64 1011.5
20260507110033 69 132 9.0 17.0 0.00 0.00 0.00 62 1011.7
20260507104533 69 133 10.0 17.0 0.00 0.00 0.00 65 1011.6
20260507103015 69 121 8.0 16.0 0.00 0.00 0.00 65 1011.7
20260507101516 69 126 5.0 14.0 0.00 0.00 0.00 65 1011.7
20260507100057 68 128 8.0 15.0 0.00 0.00 0.00 63 1011.8
20260507094556 68 125 6.0 13.0 0.00 0.00 0.00 66 1011.7
20260507093040 70 36 2.0 6.0 0.00 0.00 0.00 65 1011.7
20260507091537 70 22 3.0 8.0 0.00 0.00 0.00 66 1011.6
20260507090022 71 19 4.0 9.0 0.00 0.00 0.00 63 1011.4
20260507084517 72 242 1.0 7.0 0.00 0.00 0.00 61 1011.3
20260507083058 70 235 1.0 8.0 0.00 0.00 0.00 48 1011.1
20260507081600 70 163 1.0 8.0 0.00 0.00 0.00 49 1011.2
20260507080034 69 165 3.0 7.0 0.00 0.00 0.00 52 1011.2
20260507074551 69 236 2.0 8.0 0.00 0.00 0.00 53 1011.3
20260507073012 68 186 1.0 7.0 0.00 0.00 0.00 58 1011.3
20260507071508 66 208 1.0 10.0 0.00 0.00 0.00 63 1011.2
20260507070049 66 204 5.0 9.0 0.00 0.00 0.00 67 1011.2
20260507064546 65 225 1.0 10.0 0.00 0.00 0.00 70 1011.1
20260507063034 65 240 2.0 9.0 0.00 0.00 0.00 71 1011.1
20260507061533 65 232 1.0 5.0 0.00 0.00 0.00 72 1011.0
20260507060029 64 232 1.0 6.0 0.00 0.00 0.00 74 1011.0
20260507054526 64 235 1.0 5.0 0.00 0.00 0.00 75 1010.8
20260507053021 62 236 0.0 2.0 0.00 0.00 0.00 79 1010.7
20260507051518 60 236 0.0 3.0 0.00 0.00 0.00 83 1010.5
20260507050025 58 235 0.0 3.0 0.00 0.00 0.00 84 1010.3
20260507044516 57 235 0.0 2.0 0.00 0.00 0.00 83 1010.3
20260507043056 57 235 0.0 1.0 0.00 0.00 0.00 83 1010.2
20260507041602 57 235 0.0 0.0 0.00 0.00 0.00 83 1010.2
20260507040044 57 235 0.0 2.0 0.00 0.00 0.00 82 1010.1
20260507034542 58 235 0.0 3.0 0.00 0.00 0.00 81 1010.2
20260507033042 58 235 2.0 5.0 0.00 0.00 0.00 82 1010.2
20260507031546 58 235 0.0 2.0 0.00 0.00 0.00 81 1010.2
20260507030047 59 235 0.0 2.0 0.00 0.00 0.00 80 1010.3
20260507024541 59 235 1.0 4.0 0.00 0.00 0.00 80 1010.1
20260507023033 59 236 0.0 7.0 0.00 0.00 0.00 80 1010.2
20260507021532 60 248 2.0 8.0 0.00 0.00 0.00 81 1010.1
20260507020010 60 259 4.0 13.0 0.00 0.00 0.00 81 1010.0
20260507014508 60 279 1.0 4.0 0.00 0.05 0.00 81 1010.0
20260507013049 60 274 1.0 11.0 0.00 0.05 0.00 81 1009.8
20260507011549 60 273 1.0 11.0 0.00 0.05 0.00 81 1009.8
20260507010033 60 251 1.0 8.0 0.00 0.05 0.00 81 1009.7
20260507004530 60 267 4.0 11.0 0.00 0.07 0.00 82 1009.7
20260507003013 60 260 3.0 11.0 0.00 0.07 0.00 81 1009.8
20260507001519 60 262 5.0 12.0 0.00 0.07 0.00 81 1009.8
20260507000054 60 238 3.0 11.0 0.00 0.07 0.00 81 1009.9
20260506234554 60 254 5.0 10.0 0.00 0.07 0.00 81 1009.9
20260506233041 60 262 3.0 15.0 0.00 0.07 0.00 80 1010.0
20260506231536 60 273 6.0 13.0 0.00 0.07 0.00 81 1009.9
20260506230018 60 259 3.0 10.0 0.00 0.07 0.00 82 1010.0
20260506224517 60 259 5.0 11.0 0.00 0.10 0.00 81 1010.0
20260506223117 60 261 3.0 12.0 0.00 0.10 0.00 81 1010.0
20260506221559 60 248 4.0 10.0 0.00 0.10 0.00 82 1010.1
20260506220059 60 246 3.0 9.0 0.00 0.10 0.00 83 1010.0
20260506214539 60 248 4.0 10.0 0.00 0.12 0.00 82 1009.9
20260506213038 60 253 5.0 10.0 0.00 0.12 0.00 82 1009.9
20260506211520 61 256 4.0 14.0 0.00 0.12 0.00 81 1009.8
20260506210018 61 247 6.0 13.0 0.00 0.12 0.00 81 1009.8
20260506204600 61 265 6.0 13.0 0.00 0.21 0.00 80 1009.7
20260506203059 61 234 5.0 18.0 0.00 0.21 0.00 78 1009.7
20260506201540 61 239 6.0 13.0 0.00 0.21 0.00 76 1009.6
20260506200038 61 238 4.0 10.0 0.00 0.21 0.00 74 1009.3
20260506194520 62 219 3.0 9.0 0.00 0.21 0.00 73 1009.1
20260506193017 62 205 1.0 8.0 0.00 0.21 0.00 70 1009.0
20260506191559 62 199 5.0 14.0 0.00 0.21 0.00 69 1008.7
20260506184541 62 234 3.0 13.0 0.00 0.21 0.00 66 1008.2
20260506183039 62 238 5.0 15.0 0.00 0.21 0.00 68 1007.9
20260506181522 63 247 4.0 12.0 0.00 0.21 0.00 68 1007.9
20260506180022 63 236 4.0 10.0 0.00 0.21 0.00 67 1007.9
20260506174504 64 250 4.0 11.0 0.00 0.21 0.00 65 1007.8
20260506173003 64 250 6.0 17.0 0.00 0.21 0.00 65 1007.6
20260506171549 66 271 8.0 19.0 0.00 0.21 0.00 63 1007.7
20260506170057 66 217 4.0 15.0 0.00 0.21 0.00 62 1007.6
20260506164532 67 246 7.0 15.0 0.00 0.21 0.00 61 1007.7
20260506163053 68 242 8.0 15.0 0.00 0.21 0.00 61 1007.9
20260506161530 68 235 7.0 18.0 0.00 0.21 0.00 62 1008.0
20260506160027 68 267 7.0 17.0 0.00 0.21 0.00 64 1008.1
20260506154526 67 213 7.0 12.0 0.00 0.21 0.00 68 1008.1
20260506153024 68 248 7.0 15.0 0.00 0.21 0.00 70 1008.2
20260506151524 67 238 6.0 14.0 0.00 0.21 0.00 72 1008.2
20260506150027 68 250 6.0 16.0 0.00 0.21 0.00 72 1008.3
20260506144505 69 208 5.0 14.0 0.00 0.21 0.00 72 1008.3
20260506143005 68 212 6.0 17.0 0.00 0.21 0.00 73 1008.3
20260506141547 68 205 5.0 13.0 0.00 0.21 0.00 74 1008.2
20260506140048 69 233 6.0 15.0 0.00 0.21 0.00 73 1008.2
20260506134529 69 280 7.0 16.0 0.00 0.21 0.00 74 1008.2
20260506133028 68 250 7.0 16.0 0.00 0.21 0.00 75 1008.3
20260506131514 68 223 8.0 15.0 0.00 0.21 0.00 76 1008.4
20260506130010 68 215 5.0 12.0 0.00 0.21 0.00 75 1008.6
20260506124551 69 216 7.0 15.0 0.00 0.21 0.00 75 1008.7
20260506123050 68 245 5.0 12.0 0.00 0.21 0.00 78 1008.6
20260506121539 68 246 7.0 15.0 0.00 0.21 0.00 79 1008.6
20260506120031 67 251 6.0 15.0 0.00 0.21 0.00 79 1008.6